Hourly Weather Klabuki

Today, 25 July, Sunday

Time Temperature Precipitation Wind Pressure Humidity
00:00 +14°C° 0 mm 2 mps 745 mmHg 60%
01:00 +14°C° 0 mm 2 mps 746 mmHg 61%
02:00 +13°C° 0 mm 1 mps 746 mmHg 61%
03:00 +13°C° 0 mm 1 mps 746 mmHg 61%
04:00 +13°C° 0 mm 1 mps 746 mmHg 62%
05:00 +12°C° 0 mm 1 mps 746 mmHg 62%
06:00 +14°C° 0 mm 1 mps 747 mmHg 56%
07:00 +16°C° 0 mm 2 mps 747 mmHg 50%
08:00 +18°C° 0 mm 2 mps 747 mmHg 42%
09:00 +19°C° 0 mm 2 mps 747 mmHg 40%
10:00 +20°C° 0 mm 2 mps 747 mmHg 37%
11:00 +21°C° 0 mm 2 mps 747 mmHg 35%
12:00 +23°C° 0 mm 2 mps 747 mmHg 36%
13:00 +23°C° 0 mm 2 mps 747 mmHg 36%
14:00 +23°C° 0 mm 2 mps 747 mmHg 37%
15:00 +21°C° 0 mm 2 mps 747 mmHg 42%
16:00 +20°C° 0 mm 2 mps 747 mmHg 48%
17:00 +19°C° 0 mm 2 mps 748 mmHg 54%
18:00 +18°C° 0 mm 2 mps 748 mmHg 58%
19:00 +18°C° 0 mm 1 mps 748 mmHg 62%
20:00 +16°C° 0 mm 1 mps 748 mmHg 66%
21:00 +16°C° 0 mm 1 mps 748 mmHg 66%
22:00 +16°C° 0 mm 1 mps 748 mmHg 67%
23:00 +15°C° 0 mm 1 mps 748 mmHg 68%

Tomorrow, 26 July, Monday

Time Temperature Precipitation Wind Pressure Humidity
00:00 +15°C° 0 mm 1 mps 748 mmHg 67%
01:00 +15°C° 0 mm 2 mps 748 mmHg 67%
02:00 +16°C° 0 mm 2 mps 749 mmHg 66%
03:00 +16°C° 0 mm 1 mps 749 mmHg 66%
04:00 +16°C° 0 mm 1 mps 749 mmHg 65%
05:00 +16°C° 0 mm 1 mps 749 mmHg 65%
06:00 +18°C° 0 mm 1 mps 749 mmHg 63%
07:00 +18°C° 0 mm 1 mps 749 mmHg 61%
08:00 +18°C° 0 mm 2 mps 749 mmHg 59%
09:00 +20°C° 0 mm 2 mps 749 mmHg 55%
10:00 +21°C° 0 mm 2 mps 749 mmHg 50%
11:00 +23°C° 0 mm 2 mps 749 mmHg 46%
12:00 +25°C° 0 mm 3 mps 749 mmHg 42%
13:00 +26°C° 0 mm 3 mps 749 mmHg 38%
14:00 +27°C° 0 mm 3 mps 748 mmHg 34%
15:00 +27°C° 0 mm 3 mps 748 mmHg 37%
16:00 +26°C° 0 mm 3 mps 748 mmHg 40%
17:00 +26°C° 0 mm 3 mps 748 mmHg 43%
18:00 +24°C° 0 mm 2 mps 748 mmHg 50%
19:00 +21°C° 0 mm 2 mps 748 mmHg 58%
20:00 +19°C° 0 mm 2 mps 748 mmHg 65%
21:00 +19°C° 0 mm 1 mps 748 mmHg 68%
22:00 +19°C° 0 mm 1 mps 749 mmHg 70%
23:00 +18°C° 0 mm 1 mps 749 mmHg 73%

Day after tomorrow, 27 July, Tuesday

Time Temperature Precipitation Wind Pressure Humidity
00:00 +18°C° 0 mm 1 mps 749 mmHg 73%
01:00 +18°C° 0 mm 1 mps 749 mmHg 73%
02:00 +16°C° 0 mm 2 mps 749 mmHg 74%
03:00 +18°C° 0 mm 1 mps 749 mmHg 75%
04:00 +18°C° 0 mm 1 mps 749 mmHg 76%
05:00 +18°C° 0 mm 1 mps 749 mmHg 77%
06:00 +20°C° 0 mm 1 mps 749 mmHg 68%
07:00 +22°C° 0 mm 1 mps 749 mmHg 60%
08:00 +24°C° 0 mm 2 mps 749 mmHg 52%
09:00 +26°C° 0 mm 2 mps 749 mmHg 47%
10:00 +27°C° 0 mm 2 mps 749 mmHg 42%
11:00 +29°C° 0 mm 2 mps 748 mmHg 37%
12:00 +29°C° 0 mm 2 mps 748 mmHg 36%
13:00 +29°C° 0 mm 2 mps 748 mmHg 35%
14:00 +29°C° 0 mm 2 mps 747 mmHg 35%
15:00 +27°C° 0.1 mm 2 mps 747 mmHg 43%
16:00 +26°C° 0.1 mm 3 mps 747 mmHg 52%
17:00 +24°C° 0.1 mm 3 mps 747 mmHg 61%
18:00 +21°C° 0.1 mm 3 mps 747 mmHg 67%
19:00 +20°C° 0.1 mm 2 mps 747 mmHg 72%
20:00 +18°C° 0.1 mm 2 mps 746 mmHg 78%
21:00 +17°C° 0 mm 2 mps 746 mmHg 80%
22:00 +17°C° 0 mm 2 mps 746 mmHg 82%
23:00 +16°C° 0 mm 2 mps 746 mmHg 84%

28 July, Wednesday

Time Temperature Precipitation Wind Pressure Humidity
00:00 +16°C° 0 mm 2 mps 746 mmHg 85%
01:00 +16°C° 0 mm 2 mps 746 mmHg 86%
02:00 +15°C° 0 mm 2 mps 746 mmHg 88%
03:00 +16°C° 0 mm 2 mps 745 mmHg 86%
04:00 +16°C° 0 mm 1 mps 745 mmHg 84%
05:00 +18°C° 0 mm 1 mps 744 mmHg 81%
06:00 +19°C° 0 mm 2 mps 744 mmHg 71%
07:00 +23°C° 0 mm 2 mps 744 mmHg 61%
08:00 +26°C° 0 mm 2 mps 744 mmHg 52%
09:00 +27°C° 0 mm 3 mps 743 mmHg 47%
10:00 +28°C° 0 mm 3 mps 743 mmHg 42%
11:00 +30°C° 0 mm 3 mps 743 mmHg 38%
12:00 +29°C° 0 mm 3 mps 742 mmHg 42%
13:00 +28°C° 0 mm 3 mps 742 mmHg 45%
14:00 +27°C° 0 mm 3 mps 741 mmHg 49%
15:00 +25°C° 0.4 mm 3 mps 741 mmHg 59%
16:00 +24°C° 0.4 mm 2 mps 741 mmHg 68%
17:00 +21°C° 0.4 mm 2 mps 741 mmHg 77%
18:00 +20°C° 0.5 mm 2 mps 741 mmHg 82%
19:00 +19°C° 0.5 mm 2 mps 740 mmHg 87%
20:00 +18°C° 0.5 mm 2 mps 740 mmHg 91%
21:00 +17°C° 0.2 mm 2 mps 740 mmHg 92%
22:00 +17°C° 0.2 mm 2 mps 740 mmHg 93%
23:00 +16°C° 0.2 mm 2 mps 740 mmHg 93%

29 July, Thursday

Time Temperature Precipitation Wind Pressure Humidity
00:00 +16°C° 0 mm 2 mps 740 mmHg 94%
01:00 +15°C° 0 mm 2 mps 739 mmHg 94%
02:00 +15°C° 0 mm 2 mps 739 mmHg 95%
03:00 +15°C° 0 mm 2 mps 739 mmHg 94%
04:00 +15°C° 0 mm 2 mps 739 mmHg 93%
05:00 +16°C° 0 mm 1 mps 739 mmHg 92%
06:00 +17°C° 0 mm 2 mps 739 mmHg 84%
07:00 +19°C° 0 mm 2 mps 739 mmHg 77%
08:00 +21°C° 0 mm 2 mps 739 mmHg 69%
09:00 +23°C° 0 mm 2 mps 739 mmHg 62%
10:00 +25°C° 0 mm 2 mps 739 mmHg 56%
11:00 +26°C° 0 mm 2 mps 739 mmHg 50%
12:00 +27°C° 0 mm 3 mps 739 mmHg 47%
13:00 +28°C° 0 mm 3 mps 739 mmHg 44%
14:00 +28°C° 0 mm 3 mps 739 mmHg 42%
15:00 +27°C° 0 mm 3 mps 739 mmHg 47%
16:00 +26°C° 0 mm 3 mps 738 mmHg 52%
17:00 +25°C° 0 mm 3 mps 738 mmHg 58%
18:00 +24°C° 0 mm 3 mps 738 mmHg 64%
19:00 +21°C° 0 mm 3 mps 738 mmHg 70%
20:00 +20°C° 0 mm 2 mps 738 mmHg 76%
21:00 +19°C° 0 mm 2 mps 738 mmHg 78%
22:00 +18°C° 0 mm 3 mps 738 mmHg 80%
23:00 +18°C° 0 mm 3 mps 738 mmHg 82%

30 July, Friday

Time Temperature Precipitation Wind Pressure Humidity
00:00 +18°C° 0 mm 3 mps 738 mmHg 81%
01:00 +18°C° 0 mm 3 mps 738 mmHg 80%
02:00 +18°C° 0 mm 3 mps 738 mmHg 79%
03:00 +18°C° 0 mm 3 mps 738 mmHg 82%
04:00 +17°C° 0 mm 3 mps 739 mmHg 84%
05:00 +17°C° 0 mm 4 mps 739 mmHg 86%
06:00 +19°C° 0 mm 4 mps 739 mmHg 77%
07:00 +20°C° 0 mm 4 mps 739 mmHg 68%
08:00 +22°C° 0 mm 5 mps 739 mmHg 59%
09:00 +23°C° 0 mm 5 mps 740 mmHg 51%
10:00 +25°C° 0 mm 5 mps 740 mmHg 43%
11:00 +26°C° 0 mm 5 mps 740 mmHg 36%
12:00 +26°C° 0 mm 5 mps 740 mmHg 35%
13:00 +27°C° 0 mm 5 mps 740 mmHg 33%
14:00 +27°C° 0 mm 5 mps 740 mmHg 32%
15:00 +27°C° 0 mm 4 mps 740 mmHg 34%
16:00 +27°C° 0 mm 4 mps 740 mmHg 36%
17:00 +26°C° 0 mm 4 mps 740 mmHg 38%
18:00 +24°C° 0 mm 3 mps 740 mmHg 45%
19:00 +21°C° 0 mm 3 mps 740 mmHg 53%
20:00 +19°C° 0 mm 2 mps 740 mmHg 60%
21:00 +19°C° 0 mm 2 mps 740 mmHg 62%
22:00 +18°C° 0 mm 2 mps 740 mmHg 65%
23:00 +17°C° 0 mm 2 mps 740 mmHg 68%
Show more